This demonstration page uses our WeatherBlox Daily Observations layout. Learn more.

Left ArrowRight Arrow

Hourly Observations for May 22, 2017

Temp ( °F °C ) Dew Point ( °F °C ) Humidity (%) Winds ( mph kmh ) Pressure ( in mb ) Visibility ( mi km ) Precip ( " mm )
12:52 am 00:52 Clear 54 12.2 50 10 87 87 Calm 30.14 1021 10 16 0.00 0.00
1:52 am 01:52 Clear 54 12.2 49 9.4 83 83 Calm 30.12 1020 10 16 0.00 0.00
2:52 am 02:52 Clear 53 11.7 49 9.4 86 86 SSE 6 9 30.12 1020 10 16 0.00 0.00
3:52 am 03:52 Clear 53 11.7 49 9.4 86 86 Calm 30.10 1019 10 16 0.00 0.00
4:52 am 04:52 Clear 52 11.1 49 9.4 89 89 SSE 3 6 30.11 1020 10 16 0.00 0.00
5:52 am 05:52 Clear 52 11.1 49 9.4 89 89 SSE 7 11 30.11 1020 10 16 0.00 0.00
6:52 am 06:52 Sunny 52 11.1 49 9.4 89 89 SSE 7 11 30.11 1020 10 16 0.00 0.00
7:52 am 07:52 Sunny 57 13.9 51 10.6 81 81 SSE 12 19 30.11 1020 10 16 0.00 0.00
8:52 am 08:52 Mostly Sunny 61 16.1 50 10 67 67 S 13 20 30.13 1020 10 16 0.00 0.00
9:52 am 09:52 Mostly Sunny 66 18.9 51 10.6 59 59 S 12 19 30.12 1020 10 16 0.00 0.00
10:52 am 10:52 Sunny 69 20.6 51 10.6 53 53 SSE 16 26 30.09 1019 10 16 0.00 0.00
11:52 am 11:52 Sunny 70 21.1 50 10 49 49 S 16 26 30.06 1018 10 16 0.00 0.00
12:52 pm 12:52 Sunny 71 21.7 50 10 47 47 S 13 20 30.06 1018 10 16 0.00 0.00
1:52 pm 13:52 Sunny 72 22.2 49 9.4 44 44 SSW 12 19 30.03 1017 10 16 0.00 0.00
2:52 pm 14:52 Sunny 72 22.2 50 10 46 46 S 12 19 30.01 1016 10 16 0.00 0.00
3:52 pm 15:52 Sunny 74 23.3 51 10.6 45 45 S 8 13 29.97 1015 10 16 0.00 0.00
4:52 pm 16:52 Sunny 73 22.8 50 10 44 44 SSE 7 11 29.95 1014 10 16 0.00 0.00
5:52 pm 17:52 Sunny 74 23.3 48 8.9 40 40 SSE 8 13 29.93 1014 10 16 0.00 0.00
6:52 pm 18:52 Sunny 70 21.1 46 7.8 42 42 SSE 8 13 29.92 1013 10 16 0.00 0.00
7:52 pm 19:52 Sunny 69 20.6 49 9.4 49 49 SSE 5 7 29.92 1013 10 16 0.00 0.00
8:52 pm 20:52 Clear 66 18.9 50 10 56 56 SSE 7 11 29.90 1013 10 16 0.00 0.00
9:52 pm 21:52 Partly Cloudy 66 18.9 51 10.6 59 59 SSE 7 11 29.90 1013 10 16 0.00 0.00
10:52 pm 22:52 Mostly Cloudy 63 17.2 51 10.6 65 65 S 9 15 29.89 1012 10 16 0.00 0.00
11:52 pm 23:52 Mostly Cloudy 62 16.7 51 10.6 67 67 S 7 11 29.88 1012 10 16 0.00 0.00

Powered by AerisWeather